Weather Roundup
Issued by NWS Corpus Christi, TX

Home | Current Version | Previous Version | Text Only | Print | Product List | Glossary On
Versions: 1 2 3 4 5 6 7 8 9 10 11 12 13 14 15 16 17 18 19 20 21 22 23 24 25 26 27 28 29 30 31 32 33 34 35 36 37 38 39 40 41 42 43 44 45 46 47 48 49 50
000
ASUS44 KCRP 170110
HRRCRP

SOUTH TEXAS REGIONAL WEATHER ROUNDUP
NATIONAL WEATHER SERVICE CORPUS CHRISTI TX
800 PM CDT WED APR 16 2014


TXZ229>244-170200-
...CORPUS CHRISTI AREA OBSERVATIONS...

CITY           SKY/WX    TMP DP  RH WIND       PRES   REMARKS
CORPUS CHRISTI CLOUDY    66  53  63 SE13      29.96F
NAS CORPUS CHR CLOUDY    66  55  67 SE14      29.96F
ROCKPORT       CLOUDY    65  53  65 SE15      29.98S
KINGSVILLE NAS CLOUDY    66  55  67 SE16      29.95S
ALICE          CLOUDY    66  53  63 SE16G24   29.94S
FALFURRIAS     CLOUDY    71  57  61 E14G23    29.92S
$$

...VICTORIA AREA OBSERVATIONS...

CITY           SKY/WX    TMP DP  RH WIND       PRES   REMARKS
VICTORIA       PTCLDY    63  52  67 SE10      30.00R
BEEVILLE       FAIR      65  51  59 SE9       29.97R
PLEASANTON     HVY RAIN  68  47  46 SE13G20   29.93S
SAN ANTONIO    CLOUDY    68  45  43 SE21      29.93R
$$

...LAREDO AREA OBSERVATIONS...

CITY           SKY/WX    TMP DP  RH WIND       PRES   REMARKS
LAREDO         MOCLDY    74  49  41 SE10      29.91R
COTULLA        MOCLDY    71  47  42 SE18      29.90R
DEL RIO        CLOUDY    72  39  30 SE15G23   29.84R
MCALLEN        PTCLDY    70  52  52 SE15      29.92S
HEBBRONVILLE   CLOUDY    69  51  52 SE13G18   29.92R
$$

...OTHER TEXAS OBSERVATIONS...

CITY           SKY/WX    TMP DP  RH WIND       PRES   REMARKS
BROWNSVILLE    MOCLDY    68  57  68 SE10      29.95R
HOUSTON        MOCLDY    60  49  66 SE12      30.04S
COL. STATION   PTCLDY    62  47  57 SE9       30.00S
AUSTIN         MOCLDY    65  48  54 SE15      29.94S
WACO           CLEAR     64  46  52 SE16      29.94S
FORT WORTH     PTCLDY    63  42  46 SE15      29.94R
WICHITA FALLS  PTCLDY    66  34  30 SE14      29.86R
LUBBOCK        MOCLDY    77  16  10 S20G28    29.71S
EL PASO        PTCLDY    82   1   4 W12G20    29.73S
$$

...MARINE OBSERVATIONS...

STATION/POSITION TIME  SKY/WX   TEMP    WIND        PRES    VSBY  WAVE   SWELL
                                AIR SEA DIR/SP/G                  HT/PER HT/PER
                 (UTC)          (F)     (DEG/KT/KT) (MB)    (MI)  (FT/S) (FT/S)
PORT ARANSAS     0000            65 67  110/ 14/ 16 1015.3F
BUOY 90 E PORT A NOT AVBL
BUOY 45 SE BAFFI 0100            67 69  120/ 14/ 16 1014.7R         3/ 5
BUOY 200 E PT IS NOT AVBL
BUOY 15 E GALVES 0100            62 66  100/ 14/ 17 1017.3S         2/ 3
$$



USA.gov is the U.S. government's official web portal to all federal, state and local government web resources and services.